This demonstration page uses our WeatherBlox Daily Observations layout. Learn more.

Left ArrowRight Arrow

Hourly Observations for July 5, 2018

Temp ( °F °C ) Dew Point ( °F °C ) Humidity (%) Winds ( mph kmh ) Pressure ( in mb ) Visibility ( mi km ) Precip ( " mm )
12:53 am 00:53 Clear 69 20.6 50 10 51 51 SSE 3 6 29.98 1015 10 16 0.00 0.00
1:53 am 01:53 Clear 67 19.4 50 10 55 55 Calm 30.00 1016 10 16 0.00 0.00
2:53 am 02:53 Clear 62 16.7 49 9.4 62 62 NNE 5 7 30.01 1016 10 16 0.00 0.00
3:53 am 03:53 Clear 62 16.7 49 9.4 62 62 Calm 30.02 1017 10 16 0.00 0.00
4:53 am 04:53 Clear 59 15 49 9.4 69 69 Calm 30.03 1017 10 16 0.00 0.00
5:53 am 05:53 Sunny 58 14.4 49 9.4 72 72 NNE 5 7 30.04 1017 10 16 0.00 0.00
6:53 am 06:53 Sunny 62 16.7 50 10 65 65 Calm 30.05 1018 10 16 0.00 0.00
7:53 am 07:53 Sunny 67 19.4 49 9.4 53 53 Calm 30.06 1018 10 16 0.00 0.00
8:53 am 08:53 Sunny 70 21.1 49 9.4 47 47 Calm 30.07 1018 10 16 0.00 0.00
9:53 am 09:53 Sunny 74 23.3 48 8.9 40 40 Calm 30.06 1018 10 16 0.00 0.00
10:53 am 10:53 Sunny 79 26.1 45 7.2 30 30 W 6 9 30.06 1018 10 16 0.00 0.00
11:53 am 11:53 Sunny 82 27.8 45 7.2 27 27 SSW 6 9 30.06 1018 10 16 0.00 0.00
12:53 pm 12:53 Sunny 84 28.9 44 6.7 25 25 S 9 15 30.06 1018 10 16 0.00 0.00
1:53 pm 13:53 Sunny 90 32.2 38 3.3 16 16 S 14 22 30.06 1018 10 16 0.00 0.00
2:53 pm 14:53 Sunny 89 31.7 38 3.3 16 16 S 14 22 30.04 1017 10 16 0.00 0.00
3:53 pm 15:53 Sunny 91 32.8 41 5 17 17 S 13 20 30.03 1017 10 16 0.00 0.00
4:24 pm 16:24 Sunny 90 32.2 40 4.4 17 17 S 13 20 30.00 1016 10 16 0.00 0.00
4:53 pm 16:53 Sunny 91 32.8 41 5 17 17 SSW 14 22 30.03 1017 10 16 0.00 0.00
5:53 pm 17:53 Sunny 91 32.8 39 3.9 16 16 S 12 19 30.02 1017 10 16 0.00 0.00
6:53 pm 18:53 Sunny 89 31.7 45 7.2 22 22 SSE 14 22 30.01 1016 10 16 0.00 0.00
7:53 pm 19:53 Sunny 87 30.6 43 6.1 21 21 S 10 17 30.03 1017 10 16 0.00 0.00
8:53 pm 20:53 Clear 85 29.4 46 7.8 26 26 S 7 11 30.04 1017 10 16 0.00 0.00
9:53 pm 21:53 Clear 80 26.7 47 8.3 31 31 E 3 6 30.07 1018 10 16 0.00 0.00
10:53 pm 22:53 Clear 78 25.6 48 8.9 35 35 NNE 3 6 30.07 1018 10 16 0.00 0.00
11:53 pm 23:53 Clear 76 24.4 49 9.4 39 39 NNE 3 6 30.09 1019 10 16 0.00 0.00

Powered by AerisWeather